Oceanside, CA

2:39 PM PDT on August 23, 2017 (GMT -0700)
Oceanside Municipal

Weather History for KOKB - October, 2012

Change the Weather History Date:

Thursday, October 11, 2012

  Actual Average Record
Temperature  
Mean Temperature 64 °F 64 °F  
Max Temperature 71 °F 74 °F 91 °F (2015)
Min Temperature 57 °F 54 °F 45 °F (2008)
Degree Days  
Heating Degree Days 1 2  
Month to date heating degree days 1 17  
Since 1 July heating degree days 3 32  
Cooling Degree Days 0 1  
Month to date cooling degree days 30 14  
Year to date cooling degree days 606 408  
Growing Degree Days 12 (Base 50)    
Moisture  
Dew Point 55 °F    
Average Humidity 70    
Maximum Humidity 93    
Minimum Humidity 47    
Precipitation  
Precipitation 0.74 in 0.02 in 0.85 in (2012)
Month to date precipitation 0.75 0.13  
Year to date precipitation 5.81 9.91  
Since 1 July precipitation 0.81  
Snow  
Snow 0.00 in - - ()
Month to date snowfall 0.0  
Year to date snowfall 0.0  
Snow Depth 0.00 in    
Sea Level Pressure  
Sea Level Pressure 29.92 in    
Wind  
Wind Speed 4 mph (NNW)    
Max Wind Speed 10 mph    
Max Gust Speed 21 mph    
Visibility 6 miles    
Events Fog , Rain , Thunderstorm    
T = Trace of Precipitation, MM = Missing Value Source: NWS Daily Summary

Daily Weather History Graph

Daily Weather History Graph

Search for Another Location

Airport or City:

Trip Planner

Search our weather history database for the weather conditions in past years. The results will help you decide how hot, cold, wet, or windy it might be!

Date:

Astronomy

Oct. 11, 2012 Rise Set
Actual Time 6:51 AM PDT 6:20 PM PDT
Civil Twilight 6:26 AM PDT 6:45 PM PDT
Nautical Twilight 5:57 AM PDT 7:13 PM PDT
Astronomical Twilight 5:28 AM PDT 7:42 PM PDT
Moon 2:46 AM PDT (10/11) 3:49 PM PDT (10/11)
Length of Visible Light 12h 18m
Length of Day
11h 28m
Waning Crescent, 17% of the Moon is Illuminated
Oct 11
Waning Crescent
Oct 15
New
Oct 21
First Quarter
Oct 29
Full
Nov 6
Last Quarter

Hourly Weather History & Observations

Time (PDT) Temp. Dew Point Humidity Pressure Visibility Wind Dir Wind Speed Gust Speed Precip Events Conditions
12:52 AM 61.0 °F 57.0 °F 87% 29.92 in 10.0 mi ENE 3.5 mph - N/A   Scattered Clouds
1:52 AM 60.1 °F 57.0 °F 90% 29.91 in 8.0 mi Calm Calm - N/A   Mostly Cloudy
2:23 AM 59.0 °F 55.4 °F 88% 29.91 in 5.0 mi Calm Calm - 0.01 in Rain Light Rain
2:29 AM 60.8 °F 57.2 °F 88% 29.91 in 1.8 mi Calm Calm - 0.06 in Rain Rain
2:36 AM 60.8 °F 57.2 °F 88% 29.90 in 3.0 mi North 3.5 mph - 0.07 in Rain Light Rain
2:44 AM 60.8 °F 57.2 °F 88% 29.90 in 9.0 mi ENE 3.5 mph - 0.07 in   Overcast
2:52 AM 61.0 °F 57.9 °F 90% 29.90 in 8.0 mi Calm Calm - 0.07 in   Mostly Cloudy
3:52 AM 60.1 °F 57.9 °F 93% 29.89 in 7.0 mi Calm Calm - N/A   Mostly Cloudy
4:06 AM 59.0 °F 57.2 °F 94% 29.89 in 9.0 mi Calm Calm - N/A   Overcast
4:27 AM 60.8 °F 57.2 °F 88% 29.89 in 7.0 mi Calm Calm - N/A   Overcast
4:52 AM 59.0 °F 55.9 °F 90% 29.89 in 7.0 mi Calm Calm - N/A   Scattered Clouds
5:47 AM 57.2 °F 55.4 °F 94% 29.90 in 1.8 mi Calm Calm - N/A   Scattered Clouds
5:52 AM 57.0 °F 55.0 °F 93% 29.90 in 1.2 mi Calm Calm - N/A   Mostly Cloudy
5:58 AM 57.2 °F 55.4 °F 94% 29.90 in 3.0 mi Calm Calm - N/A   Mostly Cloudy
7:08 AM 59.0 °F 57.2 °F 94% 29.90 in 6.0 mi Calm Calm - N/A   Overcast
7:29 AM 60.8 °F 57.2 °F 88% 29.91 in 5.0 mi NE 4.6 mph - N/A   Overcast
7:52 AM 60.1 °F 57.0 °F 90% 29.91 in 6.0 mi NNE 4.6 mph - N/A   Overcast
8:52 AM 62.1 °F 55.9 °F 80% 29.93 in 10.0 mi SE 4.6 mph - N/A   Mostly Cloudy
9:52 AM 66.0 °F 55.9 °F 70% 29.93 in 10.0 mi SE 6.9 mph - N/A Thunderstorm Mostly Cloudy
10:16 AM 62.6 °F 55.4 °F 77% 29.95 in 1.5 mi WNW 12.7 mph 20.7 mph 0.07 in Rain Light Rain
10:18 AM 60.8 °F 55.4 °F 82% 29.94 in 0.8 mi WNW 15.0 mph 20.7 mph 0.15 in Rain , Thunderstorm Heavy Rain
10:23 AM 59.0 °F 55.4 °F 88% 29.94 in 0.2 mi NW 15.0 mph - 0.41 in Fog , Rain , Thunderstorm Heavy Thunderstorms and Rain
10:36 AM 57.2 °F 55.4 °F 94% 29.96 in 1.2 mi NW 4.6 mph - 0.52 in Rain , Thunderstorm Light Thunderstorms and Rain
10:52 AM 57.0 °F - N/A% 29.96 in 1.5 mi ENE 8.1 mph - 0.62 in Rain , Thunderstorm Heavy Thunderstorms and Rain
11:09 AM 57.2 °F - N/A% 29.95 in 3.0 mi NE 4.6 mph - 0.04 in Rain , Thunderstorm Light Thunderstorms and Rain
11:17 AM 57.2 °F - N/A% 29.95 in 7.0 mi ENE 6.9 mph - 0.05 in Rain Light Rain
11:52 AM 62.1 °F - N/A% 29.95 in 10.0 mi Variable 3.5 mph - 0.05 in   Overcast
1:52 PM 70.0 °F 48.9 °F 47% 29.90 in 10.0 mi South 4.6 mph - N/A   Clear
2:52 PM 70.0 °F 50.0 °F 49% 29.90 in 10.0 mi SW 10.4 mph - N/A   Clear
4:52 PM 66.9 °F 54.0 °F 63% 29.90 in 10.0 mi WSW 8.1 mph - N/A   Clear
6:26 PM 64.4 °F 53.6 °F 68% 29.91 in 10.0 mi West 5.8 mph - N/A   Mostly Cloudy
6:39 PM 64.4 °F 53.6 °F 68% 29.91 in 10.0 mi West 5.8 mph - N/A   Scattered Clouds
6:52 PM 64.0 °F 53.1 °F 67% 29.92 in 10.0 mi West 3.5 mph - N/A   Partly Cloudy
8:52 PM 55.9 °F 52.0 °F 87% 29.94 in 10.0 mi NNW 3.5 mph - N/A   Clear
10:52 PM 57.9 °F 54.0 °F 87% 29.97 in 10.0 mi Calm Calm - N/A   Scattered Clouds
11:52 PM 57.9 °F 54.0 °F 87% 29.98 in 10.0 mi WNW 6.9 mph - N/A   Mostly Cloudy